,,,PA_Meas_PMT16A,,PR_Meas_QMR101_102,,RH_Meas_QMH101,,SR_Meas_QMS101,,TA_Meas_QMH101,,GenWind,,GenWind,
date,time,status,PA,status,PR,status,RH,status,SR,status,TA,status,DirAvg,status,SpdAvg,
2012-04-29, 00:00:04,VALID,1001.31,VALID,0,VALID,94.9354,VALID,0,VALID,24.3433,VALID,27,VALID,1.075,
2012-04-29, 00:01:04,VALID,1001.24,VALID,0,VALID,94.9583,VALID,0,VALID,24.3629,VALID,37,VALID,1.12109,
2012-04-29, 00:02:04,VALID,1001.23,VALID,0,VALID,94.9888,VALID,0,VALID,24.3824,VALID,44,VALID,0.994922,
2012-04-29, 00:03:04,VALID,1001.24,VALID,0,VALID,95.0117,VALID,0,VALID,24.3824,VALID,51,VALID,1.0707,
2012-04-29, 00:04:04,VALID,1001.24,VALID,0,VALID,95.004,VALID,0,VALID,24.3824,VALID,52,VALID,0.878516,
2012-04-29, 00:05:04,VALID,1001.23,VALID,0,VALID,95.004,VALID,0,VALID,24.4019,VALID,52,VALID,1.01406,
2012-04-29, 00:06:04,VALID,1001.25,VALID,0,VALID,95.004,VALID,0,VALID,24.4019,VALID,52,VALID,0.758203,
2012-04-29, 00:07:04,VALID,1001.23,VALID,0,VALID,94.9964,VALID,0,VALID,24.4037,VALID,52,VALID,0.715625,
2012-04-29, 00:08:04,VALID,1001.2,VALID,0,VALID,95.0117,VALID,0,VALID,24.4037,VALID,52,VALID,0.596484,
2012-04-29, 00:09:04,VALID,1001.2,VALID,0,VALID,94.9811,VALID,0,VALID,24.4037,VALID,52,VALID,0.642187,
2012-04-29, 00:10:04,VALID,1001.16,VALID,0,VALID,94.9735,VALID,0,VALID,24.4037,VALID,52,VALID,0.608203,
2012-04-29, 00:11:04,VALID,1001.16,VALID,0,VALID,94.9811,VALID,0,VALID,24.4037,VALID,52,VALID,0.646094,
2012-04-29, 00:12:04,VALID,1001.13,VALID,0,VALID,94.9964,VALID,0,VALID,24.4037,VALID,52,VALID,0.724609,
2012-04-29, 00:13:04,VALID,1001.12,VALID,0,VALID,95.0193,VALID,0,VALID,24.4233,VALID,52,VALID,0.703906,
2012-04-29, 00:14:04,VALID,1001.09,VALID,0,VALID,95.004,VALID,0,VALID,24.4233,VALID,52,VALID,0.433594,
2012-04-29, 00:15:04,VALID,1001.07,VALID,0,VALID,94.9964,VALID,0,VALID,24.4428,VALID,52,VALID,0.178906,
2012-04-29, 00:16:04,VALID,1001.04,VALID,0,VALID,94.9735,VALID,0,VALID,24.4214,VALID,52,VALID,0.0015625,
2012-04-29, 00:17:04,VALID,1001.06,VALID,0,VALID,94.9735,VALID,0,VALID,24.4428,VALID,52,VALID,0,
2012-04-29, 00:18:04,VALID,1001.02,VALID,0,VALID,94.9811,VALID,0,VALID,24.4019,VALID,52,VALID,0,
2012-04-29, 00:19:04,VALID,1001.03,VALID,0,VALID,94.9506,VALID,0,VALID,24.4037,VALID,52,VALID,0,
2012-04-29, 00:20:04,VALID,1000.99,VALID,0,VALID,94.9277,VALID,0,VALID,24.3842,VALID,52,VALID,0,
2012-04-29, 00:21:04,VALID,1000.96,VALID,0,VALID,94.9125,VALID,0,VALID,24.3842,VALID,52,VALID,0,
2012-04-29, 00:22:04,VALID,1000.99,VALID,0,VALID,94.9201,VALID,0,VALID,24.3629,VALID,52,VALID,0,
2012-04-29, 00:23:04,VALID,1000.96,VALID,0,VALID,94.9354,VALID,0,VALID,24.3842,VALID,52,VALID,0.16875,
2012-04-29, 00:24:04,VALID,1000.93,VALID,0,VALID,94.9583,VALID,0,VALID,24.3842,VALID,52,VALID,0.188672,
2012-04-29, 00:25:04,VALID,1000.97,VALID,0,VALID,94.9735,VALID,0,VALID,24.3842,VALID,52,VALID,0.563281,
2012-04-29, 00:26:04,VALID,1000.97,VALID,0,VALID,94.9964,VALID,0,VALID,24.3629,VALID,52,VALID,0.622266,
2012-04-29, 00:27:04,VALID,1000.98,VALID,0,VALID,95.004,VALID,0,VALID,24.3824,VALID,52,VALID,0.819531,
2012-04-29, 00:28:04,VALID,1000.95,VALID,0,VALID,94.9888,VALID,0,VALID,24.3842,VALID,52,VALID,0.693359,
2012-04-29, 00:29:04,VALID,1000.95,VALID,0,VALID,94.9811,VALID,0,VALID,24.4037,VALID,52,VALID,0.775781,
2012-04-29, 00:30:04,VALID,1000.94,VALID,0,VALID,94.9964,VALID,0,VALID,24.3824,VALID,52,VALID,0.76875,
2012-04-29, 00:31:04,VALID,1000.92,VALID,0,VALID,95.004,VALID,0,VALID,24.4233,VALID,52,VALID,0.664453,
2012-04-29, 00:32:04,VALID,1000.92,VALID,0,VALID,95.0117,VALID,0,VALID,24.4233,VALID,52,VALID,0.576953,
2012-04-29, 00:33:04,VALID,1000.91,VALID,0,VALID,95.0193,VALID,0,VALID,24.4428,VALID,52,VALID,0.506641,
2012-04-29, 00:34:04,VALID,1000.89,VALID,0,VALID,95.0193,VALID,0,VALID,24.4428,VALID,52,VALID,0.454297,
2012-04-29, 00:35:04,VALID,1000.87,VALID,0,VALID,95.004,VALID,0,VALID,24.4409,VALID,52,VALID,0.437891,
2012-04-29, 00:36:04,VALID,1000.82,VALID,0,VALID,94.9811,VALID,0,VALID,24.4428,VALID,52,VALID,0.355859,
2012-04-29, 00:37:04,VALID,1000.87,VALID,0,VALID,94.9964,VALID,0,VALID,24.4214,VALID,52,VALID,0.510547,
2012-04-29, 00:38:04,VALID,1000.86,VALID,0,VALID,94.9964,VALID,0,VALID,24.4214,VALID,52,VALID,0.369141,
2012-04-29, 00:39:04,VALID,1000.84,VALID,0,VALID,94.9811,VALID,0,VALID,24.4428,VALID,52,VALID,0.343359,
2012-04-29, 00:40:04,VALID,1000.84,VALID,0,VALID,94.9811,VALID,0,VALID,24.4214,VALID,52,VALID,0.486719,
2012-04-29, 00:41:04,VALID,1000.81,VALID,0,VALID,94.9964,VALID,0,VALID,24.4428,VALID,52,VALID,0.433594,
2012-04-29, 00:42:04,VALID,1000.76,VALID,0,VALID,94.9811,VALID,0,VALID,24.4428,VALID,52,VALID,0.415234,
2012-04-29, 00:43:04,VALID,1000.73,VALID,0,VALID,95.004,VALID,0,VALID,24.4233,VALID,52,VALID,0.335547,
2012-04-29, 00:44:04,VALID,1000.72,VALID,0,VALID,95.0193,VALID,0,VALID,24.4428,VALID,52,VALID,0.21875,
2012-04-29, 00:45:04,VALID,1000.67,VALID,0,VALID,94.9888,VALID,0,VALID,24.4233,VALID,52,VALID,0.323828,
2012-04-29, 00:46:04,VALID,1000.69,VALID,0,VALID,95.0193,VALID,0,VALID,24.4233,VALID,52,VALID,0.43125,
2012-04-29, 00:47:04,VALID,1000.65,VALID,0,VALID,95.0193,VALID,0,VALID,24.4037,VALID,52,VALID,0.395312,
2012-04-29, 00:48:04,VALID,1000.63,VALID,0,VALID,95.0117,VALID,0,VALID,24.4233,VALID,52,VALID,0.628125,
2012-04-29, 00:49:04,VALID,1000.61,VALID,0,VALID,94.9659,VALID,0,VALID,24.4037,VALID,52,VALID,0.5,
2012-04-29, 00:50:04,VALID,1000.58,VALID,0,VALID,94.9888,VALID,0,VALID,24.3842,VALID,52,VALID,0.426953,
2012-04-29, 00:51:04,VALID,1000.59,VALID,0,VALID,94.9583,VALID,0,VALID,24.3842,VALID,77,VALID,0.391406,
2012-04-29, 00:52:04,VALID,1000.6,VALID,0,VALID,94.943,VALID,0,VALID,24.3647,VALID,77,VALID,0.537891,
2012-04-29, 00:53:04,VALID,1000.57,VALID,0,VALID,94.9201,VALID,0,VALID,24.3452,VALID,77,VALID,0.637891,
2012-04-29, 00:54:04,VALID,1000.54,VALID,0,VALID,94.9125,VALID,0,VALID,24.3238,VALID,77,VALID,0.698828,
2012-04-29, 00:55:04,VALID,1000.51,VALID,0,VALID,94.882,VALID,0,VALID,24.3452,VALID,77,VALID,0.78125,
2012-04-29, 00:56:04,VALID,1000.51,VALID,0,VALID,94.882,VALID,0,VALID,24.3452,VALID,51,VALID,0.745703,
2012-04-29, 00:57:04,VALID,1000.48,VALID,0,VALID,94.8743,VALID,0,VALID,24.3257,VALID,35,VALID,0.90625,
2012-04-29, 00:58:04,VALID,1000.48,VALID,0,VALID,94.9125,VALID,0,VALID,24.3452,VALID,25,VALID,1.04727,
2012-04-29, 00:59:04,VALID,1000.46,VALID,0,VALID,94.8896,VALID,0,VALID,24.3257,VALID,18,VALID,1.07227,
2012-04-29, 01:00:04,VALID,1000.44,VALID,0,VALID,94.8514,VALID,0,VALID,24.2653,VALID,18,VALID,1.08672,
2012-04-29, 01:01:04,VALID,1000.44,VALID,0,VALID,94.8057,VALID,0,VALID,24.2476,VALID,18,VALID,1.0418,
2012-04-29, 01:02:04,VALID,1000.41,VALID,0,VALID,94.7599,VALID,0,VALID,24.1696,VALID,18,VALID,1.00273,
2012-04-29, 01:03:04,VALID,1000.37,VALID,0,VALID,94.7294,VALID,0,VALID,24.1287,VALID,18,VALID,0.905469,
2012-04-29, 01:04:04,VALID,1000.38,VALID,0,VALID,94.7751,VALID,0,VALID,24.111,VALID,18,VALID,0.702734,
2012-04-29, 01:05:04,VALID,1000.37,VALID,0,VALID,94.798,VALID,0,VALID,24.111,VALID,18,VALID,0.535547,
2012-04-29, 01:06:04,VALID,1000.36,VALID,0,VALID,94.8591,VALID,0,VALID,24.0915,VALID,18,VALID,0.607813,
2012-04-29, 01:07:04,VALID,1000.33,VALID,0,VALID,94.8896,VALID,0,VALID,24.0915,VALID,18,VALID,0.732813,
2012-04-29, 01:08:04,VALID,1000.33,VALID,0,VALID,94.9125,VALID,0,VALID,24.0915,VALID,18,VALID,0.929688,
2012-04-29, 01:09:04,VALID,1000.31,VALID,0,VALID,94.9583,VALID,0,VALID,24.0915,VALID,18,VALID,1.16914,
2012-04-29, 01:10:04,VALID,1000.33,VALID,0,VALID,94.9506,VALID,0,VALID,24.072,VALID,18,VALID,1.26055,
2012-04-29, 01:11:04,VALID,1000.31,VALID,0,VALID,94.9354,VALID,0,VALID,24.0311,VALID,18,VALID,1.16133,
2012-04-29, 01:12:04,VALID,1000.31,VALID,0,VALID,94.9506,VALID,0,VALID,24.0525,VALID,18,VALID,0.953125,
2012-04-29, 01:13:04,VALID,1000.3,VALID,0,VALID,94.9735,VALID,0,VALID,24.0329,VALID,18,VALID,0.729297,
2012-04-29, 01:14:04,VALID,1000.28,VALID,0,VALID,94.9888,VALID,0,VALID,24.0329,VALID,18,VALID,0.717188,
2012-04-29, 01:15:04,VALID,1000.3,VALID,0,VALID,94.9888,VALID,0,VALID,24.0329,VALID,18,VALID,0.596094,
2012-04-29, 01:16:04,VALID,1000.31,VALID,0,VALID,95.004,VALID,0,VALID,24.0134,VALID,18,VALID,0.590234,
2012-04-29, 01:17:04,VALID,1000.3,VALID,0,VALID,95.0498,VALID,0,VALID,24.0329,VALID,18,VALID,0.557422,
2012-04-29, 01:18:04,VALID,1000.31,VALID,0,VALID,95.0727,VALID,0,VALID,24.0116,VALID,18,VALID,0.430859,
2012-04-29, 01:19:04,VALID,1000.28,VALID,0,VALID,95.1108,VALID,0,VALID,24.0329,VALID,18,VALID,0.361328,
2012-04-29, 01:20:04,VALID,1000.27,VALID,0,VALID,95.1032,VALID,0,VALID,24.0543,VALID,18,VALID,0.332812,
2012-04-29, 01:21:04,VALID,1000.23,VALID,0,VALID,95.1261,VALID,0,VALID,24.0329,VALID,18,VALID,0.528906,
2012-04-29, 01:22:04,VALID,1000.2,VALID,0,VALID,95.1261,VALID,0,VALID,24.0525,VALID,18,VALID,0.330469,
2012-04-29, 01:23:04,VALID,1000.18,VALID,0,VALID,95.1108,VALID,0,VALID,24.0525,VALID,18,VALID,0.0886719,
2012-04-29, 01:24:04,VALID,1000.16,VALID,0,VALID,95.1261,VALID,0,VALID,24.0329,VALID,18,VALID,0.0484375,
2012-04-29, 01:25:04,VALID,1000.12,VALID,0,VALID,95.1414,VALID,0,VALID,24.0329,VALID,18,VALID,0,
2012-04-29, 01:26:04,VALID,1000.08,VALID,0,VALID,95.1261,VALID,0,VALID,24.0134,VALID,18,VALID,0,
2012-04-29, 01:27:04,VALID,1000.1,VALID,0,VALID,95.1261,VALID,0,VALID,24.0134,VALID,18,VALID,0,
2012-04-29, 01:28:04,VALID,1000.1,VALID,0,VALID,95.1414,VALID,0,VALID,23.9939,VALID,18,VALID,0,
2012-04-29, 01:29:04,VALID,1000.09,VALID,0,VALID,95.1566,VALID,0,VALID,24.0134,VALID,18,VALID,0,
2012-04-29, 01:30:04,VALID,1000.1,VALID,0,VALID,95.1414,VALID,0,VALID,24.0329,VALID,18,VALID,0,
2012-04-29, 01:31:04,VALID,1000.11,VALID,0,VALID,95.1414,VALID,0,VALID,24.0525,VALID,18,VALID,0,
2012-04-29, 01:32:04,VALID,1000.11,VALID,0,VALID,95.1795,VALID,0,VALID,24.0525,VALID,18,VALID,0,
2012-04-29, 01:33:04,VALID,1000.14,VALID,0,VALID,95.1948,VALID,0,VALID,24.0525,VALID,18,VALID,0,
2012-04-29, 01:34:04,VALID,1000.15,VALID,0,VALID,95.2024,VALID,0,VALID,24.072,VALID,18,VALID,0,
2012-04-29, 01:35:04,VALID,1000.14,VALID,0,VALID,95.1948,VALID,0,VALID,24.072,VALID,18,VALID,0.381641,
2012-04-29, 01:36:04,VALID,1000.08,VALID,0,VALID,95.21,VALID,0,VALID,24.0915,VALID,18,VALID,0.507422,
2012-04-29, 01:37:04,VALID,1000.09,VALID,0,VALID,95.1795,VALID,0,VALID,24.0915,VALID,18,VALID,0.562891,
2012-04-29, 01:38:04,VALID,1000.05,VALID,0,VALID,95.1871,VALID,0,VALID,24.111,VALID,18,VALID,0.755859,
2012-04-29, 01:39:04,VALID,1000.03,VALID,0,VALID,95.2024,VALID,0,VALID,24.1305,VALID,18,VALID,0.643359,
2012-04-29, 01:40:04,VALID,999.983,VALID,0,VALID,95.21,VALID,0,VALID,24.1305,VALID,18,VALID,0.642969,
2012-04-29, 01:41:04,VALID,999.967,VALID,0,VALID,95.2024,VALID,0,VALID,24.1696,VALID,18,VALID,0.661719,
2012-04-29, 01:42:04,VALID,999.929,VALID,0,VALID,95.21,VALID,0,VALID,24.1482,VALID,18,VALID,0.650391,
2012-04-29, 01:43:04,VALID,999.93,VALID,0,VALID,95.2024,VALID,0,VALID,24.1696,VALID,18,VALID,0.400781,
2012-04-29, 01:44:04,VALID,999.918,VALID,0,VALID,95.1948,VALID,0,VALID,24.1696,VALID,18,VALID,0.379297,
2012-04-29, 01:45:04,VALID,999.918,VALID,0,VALID,95.1948,VALID,0,VALID,24.1482,VALID,18,VALID,0.303125,
2012-04-29, 01:46:04,VALID,999.885,VALID,0,VALID,95.1795,VALID,0,VALID,24.1696,VALID,18,VALID,0.351563,
2012-04-29, 01:47:04,VALID,999.878,VALID,0,VALID,95.1719,VALID,0,VALID,24.1696,VALID,18,VALID,0.592578,
2012-04-29, 01:48:04,VALID,999.888,VALID,0,VALID,95.1566,VALID,0,VALID,24.15,VALID,18,VALID,0.779297,
2012-04-29, 01:49:04,VALID,999.877,VALID,0,VALID,95.149,VALID,0,VALID,24.15,VALID,18,VALID,0.738281,
2012-04-29, 01:50:04,VALID,999.89,VALID,0,VALID,95.1337,VALID,0,VALID,24.111,VALID,18,VALID,0.728906,
2012-04-29, 01:51:04,VALID,999.898,VALID,0,VALID,95.1032,VALID,0,VALID,24.0897,VALID,18,VALID,0.647266,
2012-04-29, 01:52:04,VALID,999.903,VALID,0,VALID,95.0574,VALID,0,VALID,24.111,VALID,18,VALID,0.791406,
2012-04-29, 01:53:04,VALID,999.869,VALID,0,VALID,95.0651,VALID,0,VALID,24.0897,VALID,18,VALID,0.69375,
2012-04-29, 01:54:04,VALID,999.902,VALID,0,VALID,95.0498,VALID,0,VALID,24.0915,VALID,18,VALID,0.793359,
2012-04-29, 01:55:04,VALID,999.9,VALID,0,VALID,95.0498,VALID,0,VALID,24.0915,VALID,18,VALID,0.648828,
2012-04-29, 01:56:04,VALID,999.906,VALID,0,VALID,95.0651,VALID,0,VALID,24.072,VALID,18,VALID,0.671484,
2012-04-29, 01:57:04,VALID,999.934,VALID,0,VALID,95.0498,VALID,0,VALID,24.0915,VALID,18,VALID,0.498047,
2012-04-29, 01:58:04,VALID,999.928,VALID,0,VALID,95.0498,VALID,0,VALID,24.072,VALID,18,VALID,0.175391,
2012-04-29, 01:59:04,VALID,999.91,VALID,0,VALID,95.0269,VALID,0,VALID,24.0329,VALID,18,VALID,0.0429688,
2012-04-29, 02:00:04,VALID,999.934,VALID,0,VALID,95.0269,VALID,0,VALID,24.0329,VALID,18,VALID,0.255078,
2012-04-29, 02:01:04,VALID,999.915,VALID,0,VALID,95.0193,VALID,0,VALID,24.0525,VALID,18,VALID,0.16875,
2012-04-29, 02:02:04,VALID,999.9,VALID,0,VALID,95.0193,VALID,0,VALID,24.0134,VALID,18,VALID,0.362891,
2012-04-29, 02:03:04,VALID,999.895,VALID,0,VALID,95.0345,VALID,0,VALID,23.9939,VALID,18,VALID,0.424219,
2012-04-29, 02:04:04,VALID,999.896,VALID,0,VALID,95.004,VALID,0,VALID,23.9744,VALID,18,VALID,0.589453,
2012-04-29, 02:05:04,VALID,999.887,VALID,0,VALID,95.0117,VALID,0,VALID,23.9549,VALID,18,VALID,0.734375,
2012-04-29, 02:06:04,VALID,999.906,VALID,0,VALID,95.004,VALID,0,VALID,23.9354,VALID,18,VALID,0.960938,
2012-04-29, 02:07:04,VALID,999.894,VALID,0,VALID,94.9888,VALID,0,VALID,23.9354,VALID,18,VALID,1.2793,
2012-04-29, 02:08:04,VALID,999.898,VALID,0,VALID,94.9888,VALID,0,VALID,23.9159,VALID,18,VALID,1.27969,
2012-04-29, 02:09:04,VALID,999.889,VALID,0,VALID,95.004,VALID,0,VALID,23.8945,VALID,18,VALID,1.09258,
2012-04-29, 02:10:04,VALID,999.871,VALID,0,VALID,95.0193,VALID,0,VALID,23.8945,VALID,18,VALID,0.940234,
2012-04-29, 02:11:04,VALID,999.866,VALID,0,VALID,95.0498,VALID,0,VALID,23.9159,VALID,18,VALID,0.749609,
2012-04-29, 02:12:04,VALID,999.84,VALID,0,VALID,95.0574,VALID,0,VALID,23.9354,VALID,18,VALID,0.691797,
2012-04-29, 02:13:04,VALID,999.848,VALID,0,VALID,95.0803,VALID,0,VALID,23.9354,VALID,18,VALID,0.400391,
2012-04-29, 02:14:04,VALID,999.783,VALID,0,VALID,95.1185,VALID,0,VALID,23.9531,VALID,18,VALID,0.552734,
2012-04-29, 02:15:04,VALID,999.77,VALID,0,VALID,95.1643,VALID,0,VALID,24.0134,VALID,18,VALID,0.480078,
2012-04-29, 02:16:04,VALID,999.731,VALID,0,VALID,95.1871,VALID,0,VALID,24.0329,VALID,18,VALID,0,
2012-04-29, 02:17:04,VALID,999.684,VALID,0,VALID,95.1719,VALID,0,VALID,24.0329,VALID,18,VALID,0,
2012-04-29, 02:18:04,VALID,999.658,VALID,0,VALID,95.2024,VALID,0,VALID,24.0311,VALID,18,VALID,0,
2012-04-29, 02:19:04,VALID,999.633,VALID,0,VALID,95.2024,VALID,0,VALID,24.0525,VALID,18,VALID,0,
2012-04-29, 02:20:04,VALID,999.611,VALID,0,VALID,95.21,VALID,0,VALID,24.0525,VALID,18,VALID,0,
2012-04-29, 02:21:04,VALID,999.61,VALID,0,VALID,95.1795,VALID,0,VALID,24.0525,VALID,18,VALID,0,
2012-04-29, 02:22:04,VALID,999.613,VALID,0,VALID,95.2024,VALID,0,VALID,24.0329,VALID,18,VALID,0,
2012-04-29, 02:23:04,VALID,999.618,VALID,0,VALID,95.1795,VALID,0,VALID,24.0525,VALID,18,VALID,0,
2012-04-29, 02:24:04,VALID,999.603,VALID,0,VALID,95.1871,VALID,0,VALID,24.0116,VALID,18,VALID,0,
2012-04-29, 02:25:04,VALID,999.622,VALID,0,VALID,95.1948,VALID,0,VALID,24.0134,VALID,18,VALID,0,
2012-04-29, 02:26:04,VALID,999.598,VALID,0,VALID,95.1795,VALID,0,VALID,23.9921,VALID,18,VALID,0,
2012-04-29, 02:27:04,VALID,999.565,VALID,0,VALID,95.2024,VALID,0,VALID,23.9921,VALID,18,VALID,0,
2012-04-29, 02:28:04,VALID,999.57,VALID,0,VALID,95.2024,VALID,0,VALID,24.0116,VALID,18,VALID,0,
2012-04-29, 02:29:04,VALID,999.533,VALID,0,VALID,95.21,VALID,0,VALID,24.0116,VALID,18,VALID,0,
2012-04-29, 02:30:04,VALID,999.528,VALID,0,VALID,95.21,VALID,0,VALID,24.0525,VALID,18,VALID,0,
2012-04-29, 02:31:04,VALID,999.515,VALID,0,VALID,95.2024,VALID,0,VALID,24.0329,VALID,18,VALID,0,
2012-04-29, 02:32:04,VALID,999.503,VALID,0,VALID,95.1948,VALID,0,VALID,24.0329,VALID,18,VALID,0,
2012-04-29, 02:33:04,VALID,999.5,VALID,0,VALID,95.1871,VALID,0,VALID,24.0134,VALID,18,VALID,0,
2012-04-29, 02:34:04,VALID,999.477,VALID,0,VALID,95.1948,VALID,0,VALID,24.0329,VALID,18,VALID,0,
2012-04-29, 02:35:04,VALID,999.493,VALID,0,VALID,95.2024,VALID,0,VALID,24.0116,VALID,18,VALID,0,
2012-04-29, 02:36:04,VALID,999.499,VALID,0,VALID,95.1948,VALID,0,VALID,24.0329,VALID,18,VALID,0,
2012-04-29, 02:37:04,VALID,999.509,VALID,0,VALID,95.21,VALID,0,VALID,24.0116,VALID,18,VALID,0,
2012-04-29, 02:38:04,VALID,999.512,VALID,0,VALID,95.2253,VALID,0,VALID,24.0134,VALID,18,VALID,0,
2012-04-29, 02:39:04,VALID,999.547,VALID,0,VALID,95.21,VALID,0,VALID,23.9939,VALID,18,VALID,0,
2012-04-29, 02:40:04,VALID,999.542,VALID,0,VALID,95.2024,VALID,0,VALID,24.0134,VALID,18,VALID,0,
2012-04-29, 02:41:04,VALID,999.578,VALID,0,VALID,95.1948,VALID,0,VALID,23.9939,VALID,18,VALID,0,
2012-04-29, 02:42:04,VALID,999.594,VALID,0,VALID,95.1643,VALID,0,VALID,23.9354,VALID,18,VALID,0,
2012-04-29, 02:43:04,VALID,999.593,VALID,0,VALID,95.1566,VALID,0,VALID,23.9159,VALID,18,VALID,0,
2012-04-29, 02:44:04,VALID,999.53,VALID,0,VALID,95.1414,VALID,0,VALID,23.8768,VALID,18,VALID,0,
2012-04-29, 02:45:04,VALID,999.561,VALID,0,VALID,95.1566,VALID,0,VALID,23.8768,VALID,18,VALID,0,
2012-04-29, 02:46:04,VALID,999.54,VALID,0,VALID,95.1795,VALID,0,VALID,23.875,VALID,18,VALID,0,
2012-04-29, 02:47:04,VALID,999.491,VALID,0,VALID,95.2177,VALID,0,VALID,23.9159,VALID,18,VALID,0,
2012-04-29, 02:48:04,VALID,999.485,VALID,0,VALID,95.2558,VALID,0,VALID,23.9354,VALID,18,VALID,0,
2012-04-29, 02:49:04,VALID,999.465,VALID,0,VALID,95.2329,VALID,0,VALID,23.9354,VALID,18,VALID,0,
2012-04-29, 02:50:04,VALID,999.487,VALID,0,VALID,95.2405,VALID,0,VALID,23.9354,VALID,18,VALID,0,
2012-04-29, 02:51:04,VALID,999.492,VALID,0,VALID,95.2482,VALID,0,VALID,23.8963,VALID,18,VALID,0,
2012-04-29, 02:52:04,VALID,999.474,VALID,0,VALID,95.2482,VALID,0,VALID,23.8768,VALID,18,VALID,0,
2012-04-29, 02:53:04,VALID,999.506,VALID,0,VALID,95.2024,VALID,0,VALID,23.8165,VALID,18,VALID,0,
2012-04-29, 02:54:04,VALID,999.494,VALID,0,VALID,95.21,VALID,0,VALID,23.7988,VALID,18,VALID,0,
2012-04-29, 02:55:04,VALID,999.479,VALID,0,VALID,95.2177,VALID,0,VALID,23.7988,VALID,139,VALID,0,
2012-04-29, 02:56:04,VALID,999.464,VALID,0,VALID,95.2253,VALID,0,VALID,23.8183,VALID,143,VALID,0,
2012-04-29, 02:57:04,VALID,999.432,VALID,0,VALID,95.2787,VALID,0,VALID,23.8573,VALID,143,VALID,0,
2012-04-29, 02:58:04,VALID,999.469,VALID,0,VALID,95.2787,VALID,0,VALID,23.8963,VALID,143,VALID,0,
2012-04-29, 02:59:04,VALID,999.454,VALID,0,VALID,95.3168,VALID,0,VALID,23.914,VALID,143,VALID,0,
2012-04-29, 03:00:04,VALID,999.453,VALID,0,VALID,95.3168,VALID,0,VALID,23.9336,VALID,143,VALID,0,
2012-04-29, 03:01:04,VALID,999.474,VALID,0,VALID,95.3321,VALID,0,VALID,23.9939,VALID,170,VALID,0.907031,
2012-04-29, 03:02:04,VALID,999.481,VALID,0,VALID,95.3245,VALID,0,VALID,24.0134,VALID,172,VALID,0.969141,
2012-04-29, 03:03:04,VALID,999.494,VALID,0,VALID,95.3245,VALID,0,VALID,24.0329,VALID,172,VALID,0.904688,
2012-04-29, 03:04:04,VALID,999.506,VALID,0,VALID,95.3321,VALID,0,VALID,24.0525,VALID,172,VALID,0.788672,
2012-04-29, 03:05:04,VALID,999.491,VALID,0,VALID,95.3474,VALID,0,VALID,24.072,VALID,172,VALID,0.789453,
2012-04-29, 03:06:04,VALID,999.511,VALID,0,VALID,95.3321,VALID,0,VALID,24.0915,VALID,172,VALID,0.485156,
2012-04-29, 03:07:04,VALID,999.497,VALID,0,VALID,95.3321,VALID,0,VALID,24.0701,VALID,172,VALID,0.780078,
2012-04-29, 03:08:04,VALID,999.522,VALID,0,VALID,95.3168,VALID,0,VALID,24.0897,VALID,172,VALID,0.737891,
2012-04-29, 03:09:04,VALID,999.527,VALID,0,VALID,95.294,VALID,0,VALID,24.0915,VALID,172,VALID,0.114063,
2012-04-29, 03:10:04,VALID,999.545,VALID,0,VALID,95.2558,VALID,0,VALID,24.0915,VALID,123,VALID,0.751562,
2012-04-29, 03:11:04,VALID,999.551,VALID,0,VALID,95.2253,VALID,0,VALID,24.111,VALID,123,VALID,0.586719,
2012-04-29, 03:12:04,VALID,999.558,VALID,0,VALID,95.1795,VALID,0,VALID,24.0701,VALID,122,VALID,0.658984,
2012-04-29, 03:13:04,VALID,999.591,VALID,0,VALID,95.1261,VALID,0,VALID,24.0525,VALID,101,VALID,0.752344,
2012-04-29, 03:14:04,VALID,999.58,VALID,0,VALID,95.0803,VALID,0,VALID,24.0134,VALID,101,VALID,0.790625,
2012-04-29, 03:15:04,VALID,999.601,VALID,0,VALID,95.0193,VALID,0,VALID,23.9744,VALID,101,VALID,0.486328,
2012-04-29, 03:16:04,VALID,999.601,VALID,0,VALID,95.004,VALID,0,VALID,23.9549,VALID,101,VALID,0.325,
2012-04-29, 03:17:04,VALID,999.626,VALID,0,VALID,94.9583,VALID,0,VALID,23.9159,VALID,101,VALID,0,
2012-04-29, 03:18:04,VALID,999.63,VALID,0,VALID,94.9888,VALID,0,VALID,23.8963,VALID,101,VALID,0.0457031,
2012-04-29, 03:19:04,VALID,999.649,VALID,0,VALID,95.0117,VALID,0,VALID,23.9159,VALID,101,VALID,0,
2012-04-29, 03:20:04,VALID,999.688,VALID,0,VALID,95.0345,VALID,0,VALID,23.875,VALID,101,VALID,0,
2012-04-29, 03:21:04,VALID,999.684,VALID,0,VALID,95.0422,VALID,0,VALID,23.8555,VALID,101,VALID,0.229687,
2012-04-29, 03:22:04,VALID,999.697,VALID,0,VALID,95.0651,VALID,0,VALID,23.8768,VALID,101,VALID,0.575391,
2012-04-29, 03:23:04,VALID,999.733,VALID,0,VALID,95.0345,VALID,0,VALID,23.8165,VALID,101,VALID,0.6125,
2012-04-29, 03:24:04,VALID,999.763,VALID,0,VALID,95.0422,VALID,0,VALID,23.7988,VALID,101,VALID,0.754297,
2012-04-29, 03:25:04,VALID,999.782,VALID,0,VALID,95.0727,VALID,0,VALID,23.7988,VALID,53,VALID,1.0543,
2012-04-29, 03:26:04,VALID,999.804,VALID,0,VALID,95.0803,VALID,0,VALID,23.7988,VALID,50,VALID,1.02813,
2012-04-29, 03:27:04,VALID,999.785,VALID,0,VALID,95.0422,VALID,0,VALID,23.7189,VALID,40,VALID,1.16016,
2012-04-29, 03:28:04,VALID,999.808,VALID,0,VALID,95.0574,VALID,0,VALID,23.7616,VALID,36,VALID,1.17031,
2012-04-29, 03:29:04,VALID,999.797,VALID,0,VALID,95.0727,VALID,0,VALID,23.7207,VALID,27,VALID,1.14648,
2012-04-29, 03:30:04,VALID,999.753,VALID,0,VALID,95.0727,VALID,0,VALID,23.7207,VALID,25,VALID,1.12891,
2012-04-29, 03:31:04,VALID,999.755,VALID,0,VALID,95.0574,VALID,0,VALID,23.6799,VALID,13,VALID,0.960156,
2012-04-29, 03:32:04,VALID,999.801,VALID,0,VALID,95.1032,VALID,0,VALID,23.7012,VALID,358,VALID,1.09492,
2012-04-29, 03:33:04,VALID,999.819,VALID,0,VALID,95.1414,VALID,0,VALID,23.7012,VALID,357,VALID,1.01055,
2012-04-29, 03:34:04,VALID,999.803,VALID,0,VALID,95.149,VALID,0,VALID,23.7207,VALID,350,VALID,0.614453,
2012-04-29, 03:35:04,VALID,999.829,VALID,0,VALID,95.1795,VALID,0,VALID,23.7402,VALID,350,VALID,0.712109,
2012-04-29, 03:36:04,VALID,999.811,VALID,0,VALID,95.21,VALID,0,VALID,23.7402,VALID,350,VALID,0.417578,
2012-04-29, 03:37:04,VALID,999.849,VALID,0,VALID,95.21,VALID,0,VALID,23.7793,VALID,350,VALID,0.222266,
2012-04-29, 03:38:04,VALID,999.857,VALID,0,VALID,95.2177,VALID,0,VALID,23.7793,VALID,2,VALID,0.597266,
2012-04-29, 03:39:04,VALID,999.887,VALID,0,VALID,95.2177,VALID,0,VALID,23.7597,VALID,45,VALID,0.941016,
2012-04-29, 03:40:04,VALID,999.867,VALID,0,VALID,95.21,VALID,0,VALID,23.7793,VALID,46,VALID,1.14609,
2012-04-29, 03:41:04,VALID,999.877,VALID,0,VALID,95.2253,VALID,0,VALID,23.7793,VALID,53,VALID,1.23789,
2012-04-29, 03:42:04,VALID,999.868,VALID,0,VALID,95.2024,VALID,0,VALID,23.7988,VALID,58,VALID,1.25781,
2012-04-29, 03:43:04,VALID,999.879,VALID,0,VALID,95.1871,VALID,0,VALID,23.8183,VALID,68,VALID,1.1957,
2012-04-29, 03:44:04,VALID,999.873,VALID,0,VALID,95.1566,VALID,0,VALID,23.7988,VALID,74,VALID,0.978516,
2012-04-29, 03:45:04,VALID,999.897,VALID,0,VALID,95.1414,VALID,0,VALID,23.7988,VALID,74,VALID,0.850391,
2012-04-29, 03:46:04,VALID,999.938,VALID,0,VALID,95.1337,VALID,0,VALID,23.7793,VALID,74,VALID,0.569141,
2012-04-29, 03:47:04,VALID,999.929,VALID,0,VALID,95.0956,VALID,0,VALID,23.7793,VALID,74,VALID,0.48125,
2012-04-29, 03:48:04,VALID,999.979,VALID,0,VALID,95.0727,VALID,0,VALID,23.7597,VALID,74,VALID,0.3125,
2012-04-29, 03:49:04,VALID,999.971,VALID,0,VALID,95.0345,VALID,0,VALID,23.7189,VALID,74,VALID,0.1375,
2012-04-29, 03:50:04,VALID,999.96,VALID,0,VALID,95.0574,VALID,0,VALID,23.7207,VALID,74,VALID,0.208984,
2012-04-29, 03:51:04,VALID,999.955,VALID,0,VALID,95.088,VALID,0,VALID,23.7207,VALID,74,VALID,0.102344,